This is the latest recevied weather packets stored in our database for station/object KM7BEO. If no packets are shown the sender has not sent any weather packets the latest 10 day(s).
| Time | Temp. | Humidity | Pressure | Rain* | Wind** | Luminosity | Snow |
|---|---|---|---|---|---|---|---|
| 1777562800 | 11.67° C | 87% | 1021.1 hPa | 0 mm | - | 185 W/m² | - |
| 1777562499 | 11.67° C | 88% | 1021.1 hPa | 0 mm | - | 165 W/m² | - |
| 1777562196 | 11.67° C | 88% | 1021.1 hPa | 0 mm | - | 139 W/m² | - |
| 1777561894 | 11.67° C | 87% | 1021.1 hPa | 0 mm | - | 123 W/m² | - |
| 1777561591 | 11.67° C | 88% | 1021.1 hPa | 0 mm | - | 106 W/m² | - |
| 1777561287 | 11.11° C | 89% | 1021.3 hPa | 0 mm | - | 100 W/m² | - |
| 1777560986 | 11.11° C | 90% | 1021.1 hPa | 0 mm | - | 89 W/m² | - |
| 1777560682 | 10.56° C | 90% | 1021.4 hPa | 0 mm | - | 82 W/m² | - |
| 1777560380 | 10.56° C | 91% | 1021.3 hPa | 0 mm | - | 73 W/m² | - |
| 1777560078 | 11.11° C | 91% | 1021.1 hPa | 0 mm | - | 68 W/m² | - |
| 1777559773 | 11.11° C | 94% | 1021.2 hPa | 0 mm | - | 63 W/m² | - |
| 1777559470 | 10.56° C | 95% | 1021.2 hPa | 0 mm | - | 58 W/m² | - |
| 1777559168 | 10° C | 97% | 1021 hPa | 0 mm | - | 53 W/m² | - |
| 1777558867 | 8.89° C | 97% | 1021.1 hPa | 0 mm | - | 47 W/m² | - |
| 1777558563 | 8.89° C | 96% | 1021 hPa | 0 mm | - | 41 W/m² | - |
| 1777558259 | 8.33° C | 97% | 1021 hPa | 0 mm | - | 36 W/m² | - |
| 1777557955 | 8.33° C | 96% | 1021.1 hPa | 0 mm | - | 34 W/m² | - |
| 1777557652 | 8.33° C | 96% | 1021 hPa | 0 mm | - | 32 W/m² | - |
| 1777557348 | 8.33° C | 96% | 1021 hPa | 0 mm | - | 29 W/m² | - |
| 1777557045 | 7.78° C | 97% | 1021 hPa | 0 mm | - | 28 W/m² | - |
| 1777556741 | 7.78° C | 96% | 1020.9 hPa | 0 mm | - | 26 W/m² | - |
| 1777556438 | 7.78° C | 97% | 1021 hPa | 0 mm | - | 24 W/m² | - |
| 1777556138 | 7.22° C | 97% | 1020.9 hPa | 0 mm | - | 22 W/m² | - |
| 1777555833 | 7.78° C | 96% | 1020.8 hPa | 0 mm | - | 20 W/m² | - |
| 1777555529 | 7.78° C | 96% | 1020.8 hPa | 0 mm | - | 17 W/m² | - |
* Rain latest hour (hover to see other rain measurements)
** Current wind speed in m/s (hover to see current wind gust speed)